Showing default

AEHF 4 (USA 288), 43651

Orbit data source: Space-Track

AEHF 4 (USA 288), 43651 is a payload satellite owned by USAF MCSW (US) in GEO that was launched on Wed, 17 Oct 2018 UTC via an ATLAS V 551 launch vehicle from the Air Force Eastern Test Range (AFETR). Payload-class satellites include a variety of spacecraft equipped with specific instruments for various scientific and technological missions. These include communications satellites like Starlink; space stations such as the ISS; scientific satellites like the Hubble; Earth observation satellites from companies like Planet Labs, Umbra, and HawkEye 360; GPS; miniature CubeSats for education and research; and military/defense satellites.

Loading next visibility...
Identifier
43651, 2018-079A
Orbit
GEO
Last TLE update
11 hours ago
Origin
Manufacturer
LMSS
Mission
Operational Defense Communications
Bus & Motor
A2100M, BT-4/AJ-EP?
Mass
6,200 kg wet, ~4,000 kg dry
Launch date (UTC)
2018-10-17 (7 years ago)
Launch vehicle
ATLAS V 551
Launch site
Air Force Eastern Test Range (AFETR)
Object type
Payload
Rocket body
Debris
Shape & HBR
Box + 2 Pan, 27 m
Radar Cross Section
35.027 m², Large (>1 m²)

Expand to show TLE details & history

TLE from 11 hours ago
0 AEHF 4 (USA 288)
1 43651U 18079A   25133.86635418 -.00000259  00000-0  00000-0 0  9996
2 43651   1.5039 343.2400 0050237   7.4153 125.4159  1.00266239 24295
Epoch: 2025-05-13T20:47Z
Definitive object data (Epoch: 2025-05-13T20:47:33.001Z)
Latitude
1.09194°
Longitude
-67.2109°
Altitude
35,909.761 km
Speed
3.066 km/s
True Right ascension
07h 46m 08s
True Declination
1° 05' 27"
Sunlit
Object was in daylight at TLE epoch
Visualization TLE readout
Latitude
-1.23191°
Longitude
104.59839°
Altitude
35,689.796 km
Speed
3.082 km/s
Apparent Right ascension
19h 31m 01s
Apparent Declination
-7° 24' 31"
Sunlit
Object is in daylight
Visualization observer readout
Local Sidereal Time
16:45:41
Azimuth
131.367° SE
Elevation
29.234°
Doppler factor
1
Orbital elements
Apogee altitude
36,001.055 km
Perigee altitude
35,577.383 km
Semi-major axis
42,167.356 km
Eccentricity
0.0050237
Inclination
1.5039°
RAAN
343.24°
Arg. of periapsis
7.4153°
True anomaly
125.88335°
Mean anomaly
125.4159°
Eccentric anomaly
125.64979°
Mean motion
0.25066 °/min
BSTAR
Unknown
Orbital period
1436.23 mins
Loading historical data...
43651 neighbors
Loading maneuver chart data...
Loading SW <> Apogee altitude chart data...

AEHF 4 (USA 288) Visibility forecast

Observer location: undefined°, undefined°

Span
Click to sort rows by Start time (UTC) header in descending order
Start Az.
Max El. time (UTC)
Max El. Az.
Max El.
End time (UTC)
End Az.
1440 mins2025-05-14 08:16:50.922Z131.38° SE2025-05-14 17:49:50.922Z128.255° SE27.228°2025-05-15 08:16:50.922Z131.387° SE
|